FIREBIRD FU3 (40377 NORAD) Tracking and Keplerian Element Data

This shows tracking and keplerian element data for the satellite.

Feedback or suggestion? Click here.




ElementValue
Catalog40377
NameFIREBIRD FU3
Epoch Orbit46579
Epoch Day175.43734497
Epoch Year2023
RAAN136.7355
Inclination99.0733
Eccentricity0.0039226
Argument of Perigee171.6122
Mean Anonmoly188.5803
Mean Motion15.77522644
Decay Rate0.00274232
L11 40377U 15003B 23175.43734497 .00274232 00000-0 15314-2 0 9995
L22 40377 99.0733 136.7355 0039226 171.6122 188.5803 15.77522644465793



Live tracking and technical data element details for FIREBIRD FU3 (NORAD 40377). FIREBIRD FU3 can be tracked NOW for your location showing map with azimuth and elevation plus other details from your city location.







IsCatalogInMostPopularTable: catalog: 40377, numindb: 357
Update: records affected: 1



GetName: 40377 FIREBIRD FU3

Hit Count: updated at: Thu, 23 Jan 2025 17:53:59 GMT